Time,TemperatureF,DewpointF,PressureIn,WindDirection,WindDirectionDegrees,WindSpeedMPH,WindSpeedGustMPH,Humidity,HourlyPrecipIn,Conditions,Clouds,dailyrainin,SoftwareType,DateUTC
2013-01-14 00:04:00,61.0,61.0,30.18,NE,35,0.0,-999.0,100,-99.99,,,-99.99,,2013-01-14 05:04:00,
2013-01-14 00:12:00,61.0,61.0,30.18,NE,35,0.0,-999.0,100,-99.99,,,-99.99,,2013-01-14 05:12:00,
2013-01-14 00:22:00,61.0,61.0,30.18,NE,34,0.0,-999.0,100,-99.99,,,-99.99,,2013-01-14 05:22:00,
2013-01-14 00:33:00,61.0,61.0,30.18,NE,35,0.0,-999.0,100,-99.99,,,-99.99,,2013-01-14 05:33:00,
2013-01-14 00:43:00,61.0,61.0,30.18,NE,35,0.0,-999.0,100,-99.99,,,-99.99,,2013-01-14 05:43:00,
2013-01-14 00:52:00,60.0,60.0,30.18,NE,34,0.0,-999.0,100,-99.99,,,-99.99,,2013-01-14 05:52:00,
2013-01-14 01:03:00,60.0,60.0,30.18,NE,34,0.0,-999.0,100,-99.99,,,-99.99,,2013-01-14 06:03:00,
2013-01-14 01:12:00,60.0,60.0,30.18,NE,34,0.0,-999.0,100,-99.99,,,-99.99,,2013-01-14 06:12:00,
2013-01-14 01:22:00,60.0,60.0,30.18,NE,34,0.0,-999.0,100,-99.99,,,-99.99,,2013-01-14 06:22:00,
2013-01-14 01:33:00,60.0,60.0,30.18,NE,35,0.0,-999.0,100,-99.99,,,-99.99,,2013-01-14 06:33:00,
2013-01-14 01:43:00,60.0,60.0,30.18,NE,35,0.0,-999.0,100,-99.99,,,-99.99,,2013-01-14 06:43:00,
2013-01-14 01:52:00,60.0,60.0,30.18,NE,35,0.0,-999.0,100,-99.99,,,-99.99,,2013-01-14 06:52:00,
2013-01-14 02:02:00,60.0,60.0,30.19,NNE,16,0.0,-999.0,100,-99.99,,,-99.99,,2013-01-14 07:02:00,
2013-01-14 02:12:00,60.0,60.0,30.19,NNE,16,0.0,-999.0,100,-99.99,,,-99.99,,2013-01-14 07:12:00,
2013-01-14 02:23:00,60.0,60.0,30.19,NNE,17,0.0,-999.0,100,-99.99,,,-99.99,,2013-01-14 07:23:00,
2013-01-14 02:33:00,60.0,60.0,30.19,North,11,0.0,-999.0,100,-99.99,,,-99.99,,2013-01-14 07:33:00,
2013-01-14 02:43:00,60.0,60.0,30.19,North,11,0.0,-999.0,100,-99.99,,,-99.99,,2013-01-14 07:43:00,
2013-01-14 02:52:00,60.0,60.0,30.19,NNE,12,0.0,-999.0,100,-99.99,,,-99.99,,2013-01-14 07:52:00,
2013-01-14 03:02:00,60.0,60.0,30.19,North,9,0.0,-999.0,100,-99.99,,,-99.99,,2013-01-14 08:02:00,
2013-01-14 03:12:00,60.0,60.0,30.19,North,9,0.0,-999.0,100,-99.99,,,-99.99,,2013-01-14 08:12:00,
2013-01-14 03:22:00,60.0,60.0,30.19,North,10,0.0,-999.0,100,-99.99,,,-99.99,,2013-01-14 08:22:00,
2013-01-14 03:33:00,60.0,60.0,30.19,North,10,0.0,-999.0,100,-99.99,,,-99.99,,2013-01-14 08:33:00,
2013-01-14 03:42:00,60.0,60.0,30.19,North,10,0.0,-999.0,100,-99.99,,,-99.99,,2013-01-14 08:42:00,
2013-01-14 03:53:00,60.0,60.0,30.18,NNE,13,0.0,-999.0,100,-99.99,,,-99.99,,2013-01-14 08:53:00,
2013-01-14 04:03:00,60.0,60.0,30.17,NNE,26,0.0,-999.0,100,-99.99,,,-99.99,,2013-01-14 09:03:00,
2013-01-14 04:12:00,60.0,60.0,30.17,NNE,26,0.0,-999.0,100,-99.99,,,-99.99,,2013-01-14 09:12:00,
2013-01-14 04:23:00,61.0,61.0,30.17,North,360,0.0,-999.0,100,-99.99,,,-99.99,,2013-01-14 09:23:00,
2013-01-14 04:33:00,60.0,60.0,30.16,West,276,0.0,-999.0,100,-99.99,,,-99.99,,2013-01-14 09:33:00,
2013-01-14 04:43:00,60.0,60.0,30.16,West,276,0.0,-999.0,100,-99.99,,,-99.99,,2013-01-14 09:43:00,
2013-01-14 04:52:00,61.0,61.0,30.16,WNW,302,0.0,-999.0,100,-99.99,,,-99.99,,2013-01-14 09:52:00,
2013-01-14 05:02:00,60.0,60.0,30.16,WNW,302,0.0,-999.0,100,-99.99,,,-99.99,,2013-01-14 10:02:00,
2013-01-14 05:12:00,60.0,60.0,30.16,WNW,302,0.0,-999.0,100,-99.99,,,-99.99,,2013-01-14 10:12:00,
2013-01-14 05:23:00,60.0,60.0,30.15,NNE,32,0.0,-999.0,100,-99.99,,,-99.99,,2013-01-14 10:23:00,
2013-01-14 05:32:00,60.0,60.0,30.16,North,351,0.0,-999.0,100,-99.99,,,-99.99,,2013-01-14 10:32:00,
2013-01-14 05:43:00,60.0,60.0,30.16,North,351,0.0,-999.0,100,-99.99,,,-99.99,,2013-01-14 10:43:00,
2013-01-14 05:52:00,60.0,60.0,30.15,North,355,0.0,-999.0,100,-99.99,,,-99.99,,2013-01-14 10:52:00,
2013-01-14 06:02:00,60.0,60.0,30.16,North,5,0.0,-999.0,100,-99.99,,,-99.99,,2013-01-14 11:02:00,
2013-01-14 06:12:00,60.0,60.0,30.16,North,5,0.0,-999.0,100,-99.99,,,-99.99,,2013-01-14 11:12:00,
2013-01-14 06:22:00,61.0,61.0,30.16,NNE,29,0.0,-999.0,100,-99.99,,,-99.99,,2013-01-14 11:22:00,
2013-01-14 06:33:00,62.0,62.0,30.16,NNE,14,0.0,-999.0,100,-99.99,,,-99.99,,2013-01-14 11:33:00,
2013-01-14 06:43:00,62.0,62.0,30.16,NNE,14,0.0,-999.0,100,-99.99,,,-99.99,,2013-01-14 11:43:00,
2013-01-14 06:53:00,61.0,61.0,30.17,NNW,346,0.0,-999.0,100,-99.99,,,-99.99,,2013-01-14 11:53:00,
2013-01-14 07:03:00,61.0,61.0,30.17,NNW,346,0.0,-999.0,100,-99.99,,,-99.99,,2013-01-14 12:03:00,
2013-01-14 07:12:00,61.0,61.0,30.17,NNW,346,0.0,-999.0,100,-99.99,,,-99.99,,2013-01-14 12:12:00,
2013-01-14 07:23:00,61.0,61.0,30.18,NNW,342,0.0,-999.0,100,-99.99,,,-99.99,,2013-01-14 12:23:00,
2013-01-14 07:33:00,61.0,61.0,30.18,NNW,343,0.0,-999.0,100,-99.99,,,-99.99,,2013-01-14 12:33:00,
2013-01-14 07:43:00,61.0,61.0,30.18,NNW,343,0.0,-999.0,100,-99.99,,,-99.99,,2013-01-14 12:43:00,
2013-01-14 07:53:00,61.0,61.0,30.19,North,9,0.0,-999.0,100,-99.99,,,-99.99,,2013-01-14 12:53:00,
2013-01-14 08:03:00,61.0,61.0,30.19,North,5,0.0,-999.0,100,-99.99,,,-99.99,,2013-01-14 13:03:00,
2013-01-14 08:13:00,61.0,61.0,30.19,North,5,0.0,-999.0,100,-99.99,,,-99.99,,2013-01-14 13:13:00,
2013-01-14 08:23:00,61.0,61.0,30.20,North,5,0.0,-999.0,100,-99.99,,,-99.99,,2013-01-14 13:23:00,
2013-01-14 08:33:00,62.0,62.0,30.21,North,5,0.0,-999.0,100,-99.99,,,-99.99,,2013-01-14 13:33:00,
2013-01-14 08:43:00,62.0,62.0,30.21,North,5,0.0,-999.0,100,-99.99,,,-99.99,,2013-01-14 13:43:00,
2013-01-14 08:53:00,63.0,63.0,30.21,North,5,0.0,-999.0,100,-99.99,,,-99.99,,2013-01-14 13:53:00,
2013-01-14 09:03:00,64.0,64.0,30.22,North,355,0.0,-999.0,100,-99.99,,,-99.99,,2013-01-14 14:03:00,
2013-01-14 09:13:00,64.0,64.0,30.22,North,355,0.0,-999.0,100,-99.99,,,-99.99,,2013-01-14 14:13:00,
2013-01-14 09:23:00,64.0,64.0,30.22,North,355,0.0,-999.0,100,-99.99,,,-99.99,,2013-01-14 14:23:00,
2013-01-14 09:33:00,65.0,65.0,30.22,North,360,0.0,-999.0,100,-99.99,,,-99.99,,2013-01-14 14:33:00,
2013-01-14 09:43:00,65.0,65.0,30.22,North,360,0.0,-999.0,100,-99.99,,,-99.99,,2013-01-14 14:43:00,
2013-01-14 09:53:00,66.0,66.0,30.22,NNW,333,0.0,-999.0,100,-99.99,,,-99.99,,2013-01-14 14:53:00,
2013-01-14 10:03:00,65.0,65.0,30.22,North,360,0.0,-999.0,100,-99.99,,,-99.99,,2013-01-14 15:03:00,
2013-01-14 10:12:00,65.0,65.0,30.22,North,360,0.0,-999.0,100,-99.99,,,-99.99,,2013-01-14 15:12:00,
2013-01-14 10:23:00,65.0,65.0,30.23,NE,40,1.0,-999.0,100,-99.99,,,-99.99,,2013-01-14 15:23:00,
2013-01-14 10:33:00,65.0,65.0,30.23,NE,40,1.0,-999.0,100,-99.99,,,-99.99,,2013-01-14 15:33:00,
2013-01-14 10:43:00,65.0,65.0,30.23,NE,40,1.0,-999.0,100,-99.99,,,-99.99,,2013-01-14 15:43:00,
2013-01-14 10:53:00,67.0,67.0,30.23,NNE,29,1.0,-999.0,100,-99.99,,,-99.99,,2013-01-14 15:53:00,
2013-01-14 11:03:00,67.0,67.0,30.22,NNE,22,1.0,-999.0,100,-99.99,,,-99.99,,2013-01-14 16:03:00,
2013-01-14 11:13:00,67.0,67.0,30.22,NNE,22,1.0,-999.0,100,-99.99,,,-99.99,,2013-01-14 16:13:00,
2013-01-14 11:23:00,67.0,67.0,30.22,North,360,2.0,-999.0,100,-99.99,,,-99.99,,2013-01-14 16:23:00,
2013-01-14 11:33:00,68.0,68.0,30.21,NE,50,2.0,-999.0,100,-99.99,,,-99.99,,2013-01-14 16:33:00,
2013-01-14 11:43:00,68.0,68.0,30.21,NE,50,2.0,-999.0,100,-99.99,,,-99.99,,2013-01-14 16:43:00,
2013-01-14 11:53:00,70.0,70.0,30.21,NNE,28,2.0,-999.0,100,-99.99,,,-99.99,,2013-01-14 16:53:00,
2013-01-14 12:03:00,70.0,70.0,30.21,NNE,28,2.0,-999.0,100,-99.99,,,-99.99,,2013-01-14 17:03:00,
2013-01-14 12:12:00,70.0,70.0,30.21,NNE,28,2.0,-999.0,100,-99.99,,,-99.99,,2013-01-14 17:12:00,
2013-01-14 12:23:00,69.0,69.0,30.19,NE,49,2.0,-999.0,100,-99.99,,,-99.99,,2013-01-14 17:23:00,
2013-01-14 12:33:00,70.0,70.0,30.19,NNE,15,2.0,-999.0,100,-99.99,,,-99.99,,2013-01-14 17:33:00,
2013-01-14 12:43:00,70.0,70.0,30.19,NNE,15,2.0,-999.0,100,-99.99,,,-99.99,,2013-01-14 17:43:00,
2013-01-14 12:53:00,70.0,70.0,30.19,ENE,59,2.0,-999.0,100,-99.99,,,-99.99,,2013-01-14 17:53:00,
2013-01-14 13:03:00,69.0,69.0,30.18,North,351,4.0,-999.0,100,-99.99,,,-99.99,,2013-01-14 18:03:00,
2013-01-14 13:13:00,69.0,69.0,30.18,North,351,4.0,-999.0,100,-99.99,,,-99.99,,2013-01-14 18:13:00,
2013-01-14 13:23:00,70.0,70.0,30.17,NE,34,3.0,-999.0,100,-99.99,,,-99.99,,2013-01-14 18:23:00,
2013-01-14 13:33:00,71.0,71.0,30.16,NE,39,3.0,-999.0,100,-99.99,,,-99.99,,2013-01-14 18:33:00,
2013-01-14 13:43:00,71.0,71.0,30.16,NE,39,3.0,-999.0,100,-99.99,,,-99.99,,2013-01-14 18:43:00,
2013-01-14 13:52:00,71.0,71.0,30.16,North,360,3.0,-999.0,100,-99.99,,,-99.99,,2013-01-14 18:52:00,
2013-01-14 14:03:00,71.0,71.0,30.15,NE,34,4.0,-999.0,100,-99.99,,,-99.99,,2013-01-14 19:03:00,
2013-01-14 14:13:00,71.0,71.0,30.15,NE,34,4.0,-999.0,100,-99.99,,,-99.99,,2013-01-14 19:13:00,
2013-01-14 14:22:00,71.0,71.0,30.15,North,5,5.0,-999.0,100,-99.99,,,-99.99,,2013-01-14 19:22:00,
2013-01-14 14:33:00,71.0,71.0,30.15,NNE,20,4.0,-999.0,100,-99.99,,,-99.99,,2013-01-14 19:33:00,
2013-01-14 14:43:00,71.0,71.0,30.15,NNE,20,4.0,-999.0,100,-99.99,,,-99.99,,2013-01-14 19:43:00,
2013-01-14 14:52:00,71.0,71.0,30.15,NNE,12,3.0,-999.0,100,-99.99,,,-99.99,,2013-01-14 19:52:00,
2013-01-14 15:04:00,71.0,71.0,30.15,NNE,31,3.0,-999.0,100,-99.99,,,-99.99,,2013-01-14 20:04:00,
2013-01-14 15:13:00,71.0,71.0,30.15,NNE,31,3.0,-999.0,100,-99.99,,,-99.99,,2013-01-14 20:13:00,
2013-01-14 15:23:00,71.0,71.0,30.16,NE,37,3.0,-999.0,100,-99.99,,,-99.99,,2013-01-14 20:23:00,
2013-01-14 15:33:00,71.0,71.0,30.16,NNW,348,3.0,-999.0,100,-99.99,,,-99.99,,2013-01-14 20:33:00,
2013-01-14 15:43:00,71.0,71.0,30.16,NNW,348,3.0,-999.0,100,-99.99,,,-99.99,,2013-01-14 20:43:00,
2013-01-14 15:53:00,69.0,69.0,30.16,NNW,348,1.0,-999.0,100,-99.99,,,-99.99,,2013-01-14 20:53:00,
2013-01-14 16:03:00,68.0,68.0,30.17,North,5,1.0,-999.0,100,-99.99,,,-99.99,,2013-01-14 21:03:00,
2013-01-14 16:13:00,68.0,68.0,30.17,North,5,1.0,-999.0,100,-99.99,,,-99.99,,2013-01-14 21:13:00,
2013-01-14 16:23:00,68.0,68.0,30.17,NW,326,0.0,-999.0,100,-99.99,,,-99.99,,2013-01-14 21:23:00,
2013-01-14 16:33:00,67.0,67.0,30.18,North,5,1.0,-999.0,100,-99.99,,,-99.99,,2013-01-14 21:33:00,
2013-01-14 16:43:00,67.0,67.0,30.18,North,5,1.0,-999.0,100,-99.99,,,-99.99,,2013-01-14 21:43:00,
2013-01-14 16:53:00,65.0,65.0,30.18,North,360,0.0,-999.0,100,-99.99,,,-99.99,,2013-01-14 21:53:00,
2013-01-14 17:03:00,64.0,64.0,30.19,North,5,0.0,-999.0,100,-99.99,,,-99.99,,2013-01-14 22:03:00,
2013-01-14 17:12:00,64.0,64.0,30.19,North,5,0.0,-999.0,100,-99.99,,,-99.99,,2013-01-14 22:12:00,
2013-01-14 17:23:00,64.0,64.0,30.19,North,5,0.0,-999.0,100,-99.99,,,-99.99,,2013-01-14 22:23:00,
2013-01-14 17:33:00,64.0,64.0,30.19,North,9,0.0,-999.0,100,-99.99,,,-99.99,,2013-01-14 22:33:00,
2013-01-14 17:43:00,64.0,64.0,30.19,North,9,0.0,-999.0,100,-99.99,,,-99.99,,2013-01-14 22:43:00,
2013-01-14 17:53:00,64.0,64.0,30.19,NE,43,0.0,-999.0,100,-99.99,,,-99.99,,2013-01-14 22:53:00,
2013-01-14 18:03:00,64.0,64.0,30.19,NE,39,0.0,-999.0,100,-99.99,,,-99.99,,2013-01-14 23:03:00,
2013-01-14 18:12:00,64.0,64.0,30.19,NE,39,0.0,-999.0,100,-99.99,,,-99.99,,2013-01-14 23:12:00,
2013-01-14 18:23:00,63.0,63.0,30.19,North,355,0.0,-999.0,100,-99.99,,,-99.99,,2013-01-14 23:23:00,
2013-01-14 18:33:00,62.0,62.0,30.20,WNW,285,1.0,-999.0,100,-99.99,,,-99.99,,2013-01-14 23:33:00,
2013-01-14 18:43:00,62.0,62.0,30.20,WNW,285,1.0,-999.0,100,-99.99,,,-99.99,,2013-01-14 23:43:00,
2013-01-14 18:53:00,62.0,62.0,30.20,WNW,285,1.0,-999.0,100,-99.99,,,-99.99,,2013-01-14 23:53:00,
2013-01-14 19:03:00,62.0,62.0,30.19,WNW,290,0.0,-999.0,100,-99.99,,,-99.99,,2013-01-15 00:03:00,
2013-01-14 19:12:00,62.0,62.0,30.19,WNW,290,0.0,-999.0,100,-99.99,,,-99.99,,2013-01-15 00:12:00,
2013-01-14 19:23:00,62.0,62.0,30.19,West,275,0.0,-999.0,100,-99.99,,,-99.99,,2013-01-15 00:23:00,
2013-01-14 19:33:00,62.0,62.0,30.19,North,355,0.0,-999.0,100,-99.99,,,-99.99,,2013-01-15 00:33:00,
2013-01-14 19:43:00,62.0,62.0,30.19,North,355,0.0,-999.0,100,-99.99,,,-99.99,,2013-01-15 00:43:00,
2013-01-14 19:52:00,62.0,62.0,30.19,NW,309,0.0,-999.0,100,-99.99,,,-99.99,,2013-01-15 00:52:00,
2013-01-14 20:02:00,61.0,61.0,30.19,NNW,329,0.0,-999.0,100,-99.99,,,-99.99,,2013-01-15 01:02:00,
2013-01-14 20:12:00,61.0,61.0,30.19,NNW,329,0.0,-999.0,100,-99.99,,,-99.99,,2013-01-15 01:12:00,
2013-01-14 20:22:00,61.0,61.0,30.19,North,360,0.0,-999.0,100,-99.99,,,-99.99,,2013-01-15 01:22:00,
2013-01-14 20:32:00,62.0,62.0,30.19,North,355,0.0,-999.0,100,-99.99,,,-99.99,,2013-01-15 01:32:00,
2013-01-14 20:43:00,62.0,62.0,30.19,North,355,0.0,-999.0,100,-99.99,,,-99.99,,2013-01-15 01:43:00,
2013-01-14 20:52:00,62.0,62.0,30.19,North,351,0.0,-999.0,100,-99.99,,,-99.99,,2013-01-15 01:52:00,
2013-01-14 21:03:00,62.0,62.0,30.19,ENE,58,1.0,-999.0,100,-99.99,,,-99.99,,2013-01-15 02:03:00,
2013-01-14 21:12:00,62.0,62.0,30.19,ENE,58,1.0,-999.0,100,-99.99,,,-99.99,,2013-01-15 02:12:00,
2013-01-14 21:23:00,63.0,63.0,30.19,North,5,1.0,-999.0,100,-99.99,,,-99.99,,2013-01-15 02:23:00,
2013-01-14 21:33:00,63.0,63.0,30.20,North,355,0.0,-999.0,100,-99.99,,,-99.99,,2013-01-15 02:33:00,
2013-01-14 21:42:00,63.0,63.0,30.20,North,355,0.0,-999.0,100,-99.99,,,-99.99,,2013-01-15 02:42:00,
2013-01-14 21:52:00,63.0,63.0,30.19,North,5,0.0,-999.0,100,-99.99,,,-99.99,,2013-01-15 02:52:00,
2013-01-14 22:03:00,63.0,63.0,30.19,North,5,0.0,-999.0,100,-99.99,,,-99.99,,2013-01-15 03:03:00,
2013-01-14 22:12:00,63.0,63.0,30.19,North,5,0.0,-999.0,100,-99.99,,,-99.99,,2013-01-15 03:12:00,
2013-01-14 22:22:00,63.0,63.0,30.19,North,5,0.0,-999.0,100,-99.99,,,-99.99,,2013-01-15 03:22:00,
2013-01-14 22:33:00,63.0,63.0,30.19,NNE,12,0.0,-999.0,100,-99.99,,,-99.99,,2013-01-15 03:33:00,
2013-01-14 22:42:00,63.0,63.0,30.19,NNE,12,0.0,-999.0,100,-99.99,,,-99.99,,2013-01-15 03:42:00,
2013-01-14 22:52:00,63.0,63.0,30.19,NNE,12,0.0,-999.0,100,-99.99,,,-99.99,,2013-01-15 03:52:00,
2013-01-14 23:03:00,63.0,63.0,30.19,NNE,13,0.0,-999.0,100,-99.99,,,-99.99,,2013-01-15 04:03:00,
2013-01-14 23:12:00,63.0,63.0,30.19,NNE,13,0.0,-999.0,100,-99.99,,,-99.99,,2013-01-15 04:12:00,
2013-01-14 23:22:00,63.0,63.0,30.19,NNE,13,0.0,-999.0,100,-99.99,,,-99.99,,2013-01-15 04:22:00,
2013-01-14 23:33:00,62.0,62.0,30.19,NNE,17,0.0,-999.0,100,-99.99,,,-99.99,,2013-01-15 04:33:00,
2013-01-14 23:42:00,62.0,62.0,30.19,NNE,17,0.0,-999.0,100,-99.99,,,-99.99,,2013-01-15 04:42:00,
2013-01-14 23:52:00,62.0,62.0,30.19,NNE,19,0.0,-999.0,100,-99.99,,,-99.99,,2013-01-15 04:52:00,